Regional Weather Roundup
Issued by NWS

Home | Current Version | Previous Version | Graphics & Text | Print | Product List | Glossary On
Versions: 1 2 3 4 5 6 7 8 9 10 11 12 13 14 15 16 17 18 19 20 21 22 23 24 25 26 27 28 29 30 31 32 33 34 35 36 37 38 39 40 41 42 43 44 45 46 47 48 49 50
000
ASUS43 KBIS 230010
RWRND

NORTH DAKOTA REGIONAL WEATHER ROUNDUP
NATIONAL WEATHER SERVICE BISMARCK ND
700 PM CDT TUE APR 22 2014

NOTE: "FAIR" INDICATES FEW OR NO CLOUDS BELOW 12,000 FEET WITH NO
SIGNIFICANT WEATHER AND/OR OBSTRUCTIONS TO VISIBILITY.


NDZ001>003-009>011-017-230100-
NORTHWEST NORTH DAKOTA

CITY           SKY/WX    TMP DP  RH WIND       PRES   REMARKS
WILLISTON      PTSUNNY   70  30  22 SE21G33   29.66F
6HR MIN TEMP:  66; 6HR MAX TEMP:  71;

MINOT          PTSUNNY   64  33  31 E15       29.80F
MINOT AFB      PTSUNNY   63  35  34 SE21      29.80F
$$

NDZ018>021-031>035-040>046-230100-
SOUTHWEST NORTH DAKOTA

CITY           SKY/WX    TMP DP  RH WIND       PRES   REMARKS
BISMARCK       MOSUNNY   66  31  27 SE24G32   29.80F
6HR MIN TEMP:  66; 6HR MAX TEMP:  72;

DICKINSON      SUNNY     65  30  27 SE26G36   29.68F
GARRISON         N/A     65  32  29 SE22G30   29.77F
6HR MIN TEMP:  65; 6HR MAX TEMP:  71;

HETTINGER ARPT CLOUDY    65  32  29 SE24G37   29.68F
$$

NDZ004>008-012>016-024-026-027-054-230100-
NORTHEAST NORTH DAKOTA

CITY           SKY/WX    TMP DP  RH WIND       PRES   REMARKS
GRAND FORKS    MOSUNNY   61  30  31 SE10      29.98F
GRND FRKS AFB  SUNNY     60  32  34 SE13      29.98F
DEVILS LAKE    MOSUNNY   57  28  33 SE14      29.92F
$$

NDZ022-023-025-028>030-036>039-047>053-230100-
SOUTHEAST NORTH DAKOTA

CITY           SKY/WX    TMP DP  RH WIND       PRES   REMARKS
FARGO          PTSUNNY   61  34  36 SE13      29.98F
6HR MIN TEMP:  58; 6HR MAX TEMP:  64;

JAMESTOWN      SUNNY     61  33  35 SE21      29.90F
$$




USA.gov is the U.S. government's official web portal to all federal, state and local government web resources and services.